, FL

(GMT )
Bonifay

Weather History for K1J0 - August, 2019

Change the Weather History Date:

Thursday, August 15, 2019

  Actual Average Record
Temperature  
Mean Temperature 85 °F -  
Max Temperature 95 °F - - ()
Min Temperature 75 °F - - ()
Cooling Degree Days 20    
Growing Degree Days 35 (Base 50)    
Moisture  
Dew Point 75 °F    
Average Humidity 87    
Maximum Humidity 97    
Minimum Humidity 52    
Precipitation  
Precipitation 0.01 in - - ()
Sea Level Pressure  
Sea Level Pressure 29.84 in    
Wind  
Wind Speed 1 mph (SSE)    
Max Wind Speed 10 mph    
Max Gust Speed -    
Visibility 6 miles    
Events Fog , Rain , Thunderstorm    
T = Trace of Precipitation, MM = Missing Value Source: NWS Daily Summary

Daily Weather History Graph

Daily Weather History Graph

Search for Another Location

Airport or City:

Astronomy

Aug. 15, 2019 Rise Set
Actual Time 7:08 AM EDT 8:24 PM EDT
Civil Twilight 6:43 AM EDT 8:50 PM EDT
Nautical Twilight 6:12 AM EDT 9:20 PM EDT
Astronomical Twilight 5:41 AM EDT 9:51 PM EDT
Moon 8:51 PM EDT (8/15) 7:05 AM EDT (8/15)
Length of Visible Light 14h 07m
Length of Day
13h 16m
Full, 100% of the Moon is Illuminated
Aug 15
Full
Aug 23
Last Quarter
Aug 30
New
Sep 5
First Quarter
Sep 14
Full

Hourly Weather History & Observations

Time (EDT) Temp. Heat Index Dew Point Humidity Pressure Visibility Wind Dir Wind Speed Gust Speed Precip Events Conditions
12:58 AM 75.9 °F - 73.9 °F 94% 29.79 in 10.0 mi Calm Calm - N/A   Clear
1:58 AM 75.9 °F - 75.0 °F 97% 29.79 in 8.0 mi Calm Calm - N/A   Clear
2:58 AM 75.9 °F - 73.9 °F 94% 29.79 in 8.0 mi Calm Calm - N/A   Clear
3:25 AM 75.9 °F - 73.9 °F 94% 29.91 in 7.0 mi Calm Calm - N/A   Partly Cloudy
3:38 AM 75.9 °F - 73.9 °F 94% 29.91 in 6.0 mi Calm Calm - N/A   Mostly Cloudy
3:56 AM 75.2 °F - 73.4 °F 94% 29.91 in 1.8 mi Calm Calm - N/A   Overcast
3:58 AM 75.9 °F - 73.9 °F 94% 29.79 in 1.2 mi Calm Calm - N/A   Overcast
4:26 AM 75.0 °F - 73.9 °F 96% 29.92 in 0.5 mi Calm Calm - N/A Fog Fog
4:58 AM 75.0 °F - 73.9 °F 96% 29.79 in 0.2 mi South 4.6 mph - N/A Fog Fog
5:58 AM 75.0 °F - 73.9 °F 96% 29.79 in 1.0 mi Calm Calm - N/A   Mist
6:48 AM 75.0 °F - 73.9 °F 96% 29.92 in 2.0 mi NE 3.5 mph - N/A   Overcast
6:58 AM 75.0 °F - 73.9 °F 96% 29.81 in 2.0 mi Calm Calm - N/A   Overcast
7:07 AM 75.0 °F - 73.9 °F 96% 29.93 in 3.0 mi Calm Calm - N/A   Overcast
7:40 AM 75.0 °F - 73.9 °F 96% 29.95 in 0.5 mi Calm Calm - N/A Fog Fog
7:58 AM 75.0 °F - 73.9 °F 96% 29.83 in 0.8 mi Calm Calm - N/A   Overcast
8:09 AM 75.0 °F - 73.9 °F 96% 29.95 in 1.5 mi Calm Calm - N/A   Overcast
8:26 AM 75.9 °F - 75.0 °F 97% 29.96 in 4.0 mi Calm Calm - N/A   Overcast
8:58 AM 78.1 °F - 75.0 °F 90% 29.83 in 9.0 mi Calm Calm - N/A   Scattered Clouds
9:58 AM 81.0 °F 86.7 °F 75.0 °F 82% 29.84 in 10.0 mi Calm Calm - N/A   Clear
10:58 AM 84.9 °F 94.1 °F 75.9 °F 74% 29.85 in 10.0 mi Variable 3.5 mph - N/A   Clear
11:58 AM 89.1 °F 99.1 °F 75.0 °F 63% 29.84 in 10.0 mi Calm Calm - N/A   Partly Cloudy
1:58 PM 91.9 °F 103.9 °F 75.9 °F 59% 29.81 in 10.0 mi Calm Calm - N/A   Partly Cloudy
2:58 PM 93.0 °F 104.6 °F 75.0 °F 56% 29.78 in 10.0 mi Calm Calm - N/A   Clear
4:58 PM 95.0 °F 106.7 °F 75.0 °F 52% 29.74 in 10.0 mi ENE 3.5 mph - N/A   Scattered Clouds
5:15 PM 86.0 °F 96.0 °F 75.9 °F 72% 29.85 in 2.0 mi WSW 4.6 mph - 0.01 in Rain Heavy Rain
5:58 PM 86.0 °F 102.5 °F 81.0 °F 85% 29.75 in 10.0 mi Calm Calm - 0.01 in Thunderstorm Thunderstorm
6:58 PM 82.9 °F 90.8 °F 75.9 °F 79% 29.79 in 10.0 mi South 10.4 mph - N/A Thunderstorm Thunderstorm
7:58 PM 79.0 °F - 73.0 °F 82% 29.81 in 10.0 mi South 4.6 mph - N/A   Clear
8:58 PM 78.1 °F - 73.0 °F 84% 29.82 in 10.0 mi Calm Calm - N/A   Clear
9:58 PM 78.1 °F - 75.0 °F 90% 29.83 in 10.0 mi Calm Calm - N/A   Clear
10:58 PM 77.0 °F - 73.9 °F 90% 29.83 in 10.0 mi Calm Calm - N/A   Clear
11:58 PM 75.9 °F - 73.9 °F 94% 29.84 in 10.0 mi Calm Calm - N/A   Clear